Location: Guayaquil
(2.1667°S, 79.9000°W)
Time: 04:34:53
(UTC-05:00)

Envisat - Visible Passes

Search period start: 16 June 2019 00:00
Search period end: 26 June 2019 00:00
Orbit: 764 x 766 km, 98.1° (Epoch: 15 June)

Date Brightness Start Highest point End Pass type
(mag) Time Alt. Az. Time Alt. Az. Time Alt. Az.
16 Jun 3.8 18:36:37 10° SE 18:41:05 31° ENE 18:45:32 10° NNE visible
16 Jun 5.6 20:16:58 10° SW 20:19:48 15° WSW 20:22:38 10° WNW visible
17 Jun 4.1 19:38:24 10° S 19:43:12 42° WSW 19:47:58 10° NNW visible
18 Jun 3.0 19:01:29 10° SSE 19:06:32 67° ENE 19:11:33 10° N visible
19 Jun 6.3 05:59:42 10° E 06:00:00 10° ESE 06:00:18 10° ESE visible
19 Jun 5.3 20:04:54 10° SSW 20:08:37 20° WSW 20:12:19 10° NW visible
20 Jun 3.6 19:27:00 10° S 19:31:59 58° WSW 19:36:57 10° NNW visible
21 Jun 3.3 18:50:26 10° SSE 18:55:20 48° ENE 19:00:12 10° N visible
22 Jun 4.9 19:53:09 10° SSW 19:57:25 28° WSW 20:01:41 10° NW visible
23 Jun 3.1 19:15:42 10° S 19:20:47 80° WSW 19:25:51 10° NNW visible
24 Jun 3.7 18:39:31 10° SE 18:44:07 35° ENE 18:48:42 10° NNE visible
24 Jun 5.7 20:20:30 10° SW 20:22:50 13° WSW 20:25:09 10° WNW visible
25 Jun 4.4 19:41:33 10° S 19:46:13 37° WSW 19:50:52 10° NW visible
